Change the Weather History Date:

Sunday, March 16, 2014

  Actual Average (KNYG) Record (KNYG)
Temperature  
Mean Temperature 38 °F -  
Max Temperature 45 °F 51 °F 73 °F (2002)
Min Temperature 30 °F 34 °F 28 °F (1997)
Degree Days  
Heating Degree Days 28    
Moisture  
Dew Point 28 °F    
Average Humidity 67    
Maximum Humidity 100    
Minimum Humidity 42    
Precipitation  
Precipitation 0.10 in - - ()
Sea Level Pressure  
Sea Level Pressure 30.15 in    
Wind  
Wind Speed 4 mph (NE)    
Max Wind Speed 13 mph    
Max Gust Speed 21 mph    
Visibility 8 miles    
Events Rain , Snow    
Averages and records for this station are not official NWS values.
T = Trace of Precipitation, MM = Missing Value Source: NWS Daily Summary

Daily Weather History Graph

Daily Weather History Graph

Search for Another Location

Airport or City:

Trip Planner

Search our weather history database for the weather conditions in past years. The results will help you decide how hot, cold, wet, or windy it might be!

Date:

Astronomy

Mar. 16, 2014 Rise Set
Actual Time 7:19 AM EDT 7:17 PM EDT
Civil Twilight 6:53 AM EDT 7:44 PM EDT
Nautical Twilight 6:22 AM EDT 8:15 PM EDT
Astronomical Twilight 5:51 AM EDT 8:46 PM EDT
Moon 7:32 PM EDT (3/16) 7:02 AM EDT (3/16)
Length of Visible Light 12h 51m
Length of Day
11h 58m
Full, 100% of the Moon is Illuminated
Mar 16
Full
Mar 16
Full
Mar 23
Last Quarter
Mar 30
New
Apr 7
First Quarter

Hourly Weather History & Observations

Time (EDT) Temp. Windchill Dew Point Humidity Pressure Visibility Wind Dir Wind Speed Gust Speed Precip Events Conditions
12:15 AM 40.8 °F - 26.6 °F 57% 30.09 in 10.0 mi Calm Calm - N/A   Clear
12:35 AM 38.1 °F - 27.5 °F 66% 30.10 in 10.0 mi Calm Calm - N/A   Clear
12:55 AM 40.1 °F - 27.0 °F 59% 30.10 in 10.0 mi Calm Calm - N/A   Clear
1:15 AM 36.7 °F 32.9 °F 27.0 °F 68% 30.10 in 10.0 mi North 4.6 mph - N/A   Clear
1:35 AM 36.3 °F - 27.0 °F 69% 30.10 in 10.0 mi Calm Calm - N/A   Clear
1:55 AM 35.8 °F - 27.9 °F 73% 30.12 in 10.0 mi Calm Calm - N/A   Clear
2:15 AM 36.0 °F - 28.6 °F 75% 30.12 in 10.0 mi Calm Calm - N/A   Clear
2:35 AM 35.2 °F - 28.2 °F 76% 30.13 in 10.0 mi Calm Calm - N/A   Clear
2:55 AM 33.8 °F - 27.7 °F 78% 30.13 in 10.0 mi Calm Calm - N/A   Clear
3:15 AM 36.0 °F - 27.0 °F 70% 30.13 in 10.0 mi Calm Calm - N/A   Clear
3:35 AM 32.9 °F - 27.5 °F 81% 30.13 in 10.0 mi Calm Calm - N/A   Clear
3:55 AM 35.2 °F - 27.7 °F 74% 30.13 in 10.0 mi Calm Calm - N/A   Clear
4:15 AM 32.0 °F 27.5 °F 26.8 °F 81% 30.13 in 10.0 mi North 4.6 mph - N/A   Clear
4:35 AM 33.3 °F - 27.0 °F 78% 30.13 in 10.0 mi Calm Calm - N/A   Clear
4:55 AM 35.8 °F - 26.8 °F 70% 30.15 in 10.0 mi Calm Calm - N/A   Clear
5:15 AM 40.1 °F 34.7 °F 27.7 °F 61% 30.15 in 10.0 mi North 8.1 mph - N/A   Clear
5:35 AM 40.6 °F 36.0 °F 27.9 °F 60% 30.15 in 10.0 mi North 6.9 mph - N/A   Clear
5:55 AM 40.3 °F 35.5 °F 28.0 °F 62% 30.15 in 10.0 mi North 6.9 mph - N/A   Clear
6:15 AM 40.3 °F 36.3 °F 28.4 °F 63% 30.17 in 10.0 mi North 5.8 mph - N/A   Clear
6:35 AM 40.1 °F 36.1 °F 28.9 °F 64% 30.18 in 10.0 mi North 5.8 mph - N/A   Clear
6:55 AM 40.5 °F 33.6 °F 28.8 °F 63% 30.18 in 10.0 mi North 11.5 mph - N/A   Clear
7:15 AM 40.5 °F 34.6 °F 28.4 °F 62% 30.18 in 10.0 mi NNE 9.2 mph - N/A   Clear
7:35 AM 40.5 °F 35.1 °F 28.0 °F 61% 30.18 in 10.0 mi North 8.1 mph 16.1 mph N/A   Clear
7:55 AM 40.3 °F 37.1 °F 28.0 °F 62% 30.19 in 10.0 mi NNE 4.6 mph - N/A   Clear
8:15 AM 41.0 °F 37.1 °F 28.0 °F 60% 30.19 in 10.0 mi NNE 5.8 mph - N/A   Clear
8:35 AM 41.9 °F 36.9 °F 27.9 °F 58% 30.20 in 10.0 mi NNE 8.1 mph 17.3 mph N/A   Clear
8:55 AM 42.3 °F 37.3 °F 27.5 °F 56% 30.20 in 10.0 mi NNE 8.1 mph 16.1 mph N/A   Clear
9:15 AM 43.2 °F 38.4 °F 27.3 °F 54% 30.22 in 10.0 mi NNE 8.1 mph - N/A   Clear
9:35 AM 43.3 °F 39.2 °F 26.6 °F 52% 30.21 in 10.0 mi North 6.9 mph - N/A   Clear
9:55 AM 43.9 °F 39.9 °F 27.3 °F 52% 30.20 in 10.0 mi NNE 6.9 mph - N/A   Clear
10:15 AM 44.1 °F 41.5 °F 27.7 °F 53% 30.21 in 10.0 mi NNE 4.6 mph - N/A   Clear
10:35 AM 44.6 °F 41.4 °F 27.0 °F 50% 30.21 in 10.0 mi NNE 5.8 mph - N/A   Clear
10:55 AM 44.6 °F 40.7 °F 27.1 °F 50% 30.22 in 10.0 mi NNE 6.9 mph - N/A   Clear
11:15 AM 44.4 °F - 26.2 °F 49% 30.21 in 10.0 mi Calm Calm - N/A   Clear
11:35 AM 45.0 °F 41.8 °F 26.8 °F 49% 30.20 in 10.0 mi ENE 5.8 mph - N/A   Clear
11:55 AM 45.5 °F 40.8 °F 26.2 °F 47% 30.20 in 10.0 mi NE 9.2 mph - N/A   Clear
12:15 PM 45.1 °F 40.8 °F 26.4 °F 48% 30.20 in 10.0 mi ENE 8.1 mph - N/A   Clear
12:35 PM 45.3 °F 43.0 °F 26.2 °F 47% 30.22 in 10.0 mi East 4.6 mph - N/A   Clear
12:55 PM 45.5 °F 41.3 °F 25.9 °F 46% 30.20 in 10.0 mi East 8.1 mph - N/A   Clear
1:15 PM 45.5 °F 43.2 °F 25.0 °F 45% 30.20 in 10.0 mi ENE 4.6 mph - N/A   Clear
1:35 PM 45.5 °F 41.3 °F 25.0 °F 45% 30.19 in 10.0 mi ENE 8.1 mph - N/A   Clear
1:55 PM 45.5 °F 41.8 °F 25.0 °F 45% 30.19 in 10.0 mi East 6.9 mph - N/A   Scattered Clouds
2:15 PM 45.0 °F 43.5 °F 24.4 °F 45% 30.19 in 10.0 mi NE 3.5 mph - N/A   Overcast
2:35 PM 45.0 °F 42.6 °F 24.4 °F 45% 30.18 in 10.0 mi NNE 4.6 mph - N/A   Overcast
2:55 PM 45.3 °F 40.6 °F 24.6 °F 44% 30.18 in 10.0 mi East 9.2 mph - N/A   Overcast
3:15 PM 45.5 °F 41.8 °F 24.3 °F 43% 30.16 in 10.0 mi NE 6.9 mph - N/A   Overcast
3:35 PM 45.1 °F 40.3 °F 23.7 °F 43% 30.16 in 10.0 mi NNE 9.2 mph - N/A   Overcast
3:55 PM 44.6 °F 40.2 °F 23.0 °F 43% 30.17 in 10.0 mi ENE 8.1 mph - N/A   Overcast
4:15 PM 44.8 °F 40.4 °F 22.8 °F 42% 30.16 in 10.0 mi East 8.1 mph - N/A   Overcast
4:35 PM 44.2 °F 39.2 °F 23.5 °F 44% 30.16 in 10.0 mi NE 9.2 mph 17.3 mph N/A   Overcast
4:55 PM 43.7 °F 40.3 °F 25.2 °F 48% 30.15 in 10.0 mi NE 5.8 mph - N/A   Overcast
5:15 PM 42.8 °F 40.1 °F 26.2 °F 52% 30.15 in 10.0 mi North 4.6 mph - N/A   Overcast
5:35 PM 42.6 °F 36.3 °F 26.6 °F 53% 30.14 in 10.0 mi North 11.5 mph - N/A   Overcast
5:55 PM 41.9 °F 36.9 °F 28.6 °F 59% 30.13 in 10.0 mi North 8.1 mph - N/A Rain Light Rain
6:15 PM 40.1 °F 33.6 °F 31.1 °F 70% 30.13 in 10.0 mi ENE 10.4 mph 17.3 mph N/A Rain Rain
6:35 PM 39.0 °F 34.0 °F 31.3 °F 74% 30.12 in 10.0 mi ENE 6.9 mph 17.3 mph N/A Rain Light Rain
6:55 PM 38.3 °F 32.5 °F 32.2 °F 79% 30.12 in 10.0 mi ENE 8.1 mph - N/A   Unknown
7:15 PM 36.5 °F 28.7 °F 32.5 °F 86% 30.10 in 4.0 mi NE 11.5 mph - N/A Snow Light Snow
7:35 PM 34.9 °F 29.0 °F 34.9 °F 100% 30.11 in 3.0 mi ENE 6.9 mph - N/A Snow Light Snow
7:55 PM 34.7 °F 28.1 °F 34.7 °F 100% 30.09 in 3.0 mi ENE 8.1 mph - 0.01 in Snow Light Snow
8:15 PM 34.0 °F 27.2 °F 34.0 °F 100% 30.10 in 2.5 mi ENE 8.1 mph - N/A Snow Light Snow
8:35 PM 33.8 °F 26.4 °F 33.8 °F 100% 30.12 in 2.0 mi ENE 9.2 mph 16.1 mph 0.01 in Snow Light Snow
8:55 PM 33.3 °F 24.1 °F 33.3 °F 100% 30.12 in 1.5 mi ENE 12.7 mph 20.7 mph 0.01 in Snow Light Snow
9:15 PM 32.9 °F 25.3 °F 32.9 °F 100% 30.12 in 1.0 mi ENE 9.2 mph - 0.01 in Snow Light Snow
9:35 PM 32.5 °F 23.7 °F 32.5 °F 100% 30.11 in 0.8 mi NE 11.5 mph 20.7 mph 0.02 in Snow Snow
9:55 PM 32.0 °F 24.2 °F 32.0 °F 100% 30.11 in 0.8 mi NE 9.2 mph 20.7 mph 0.04 in Snow Snow
10:15 PM 31.8 °F 28.5 °F 31.8 °F 100% 30.12 in 1.0 mi NE 3.5 mph - N/A Snow Snow
10:35 PM 31.3 °F 23.3 °F 31.3 °F 100% 30.13 in 2.0 mi NE 9.2 mph - 0.01 in Snow Light Snow
10:55 PM 31.1 °F 23.7 °F 31.1 °F 100% 30.11 in 1.0 mi NE 8.1 mph - 0.01 in Snow Snow
11:15 PM 30.9 °F 23.5 °F 30.9 °F 100% 30.11 in 1.0 mi NNE 8.1 mph - 0.01 in Snow Snow
11:35 PM 30.7 °F 22.6 °F 30.7 °F 100% 30.10 in 1.2 mi North 9.2 mph - 0.02 in Snow Light Snow
11:55 PM 30.2 °F 21.9 °F 30.2 °F 100% 30.09 in 1.2 mi NNE 9.2 mph - 0.03 in Snow Snow